Wind_Speed
11 11 10 9 9 8 8 7 7 7 7 7 6 7 7 8 9 9 9 9 9 10 9 9 9 9 9 10 9 10 10 11 11 12 14 9 7 10 10 8 7 11 14 15 16 17 19 18 17 16 15 15 15 16 16 15 14 11 7 8 8 9 9 8 6 5 4 1 5 2 2 6 2 5 5 6 12 9 11 8 9 10 13 14 15 22 22 20
13 12 11 10 9 9 8 7 8 8 8 7 7 7 7 8 8 9 9 9 9 9 9 10 10 10 9 9 9 9 10 11 12 15 14 8 8 8 7 9 9 11 16 18 17 20 20 19 18 17 16 15 15 16 15 15 15 11 7 8 9 10 9 6 5 1 1 2 4 2 3 3 3 2 3 6 11 10 12 11 11 11 13 15 16 20 19 19
14 14 13 12 10 9 9 8 8 8 9 8 8 7 8 8 8 8 8 8 8 9 10 10 11 11 10 9 9 9 10 11 14 14 10 6 5 5 6 8 9 11 15 16 16 19 18 17 18 17 17 15 15 16 14 13 14 13 10 8 9 13 10 2 4 5 2 4 2 1 0 4 2 1 5 6 8 10 11 10 10 11 12 13 16 19 20 20
15 15 15 13 12 10 9 9 9 9 9 9 9 8 8 8 8 8 8 8 8 8 9 10 11 12 11 11 9 9 10 12 10 5 5 5 4 3 5 7 10 12 14 13 14 17 16 15 16 18 17 14 15 16 13 13 13 12 12 10 11 12 9 4 4 7 3 3 4 2 3 6 2 2 7 7 8 9 10 10 9 12 13 13 18 19 19 20
14 15 15 15 14 12 10 9 9 9 9 9 9 9 9 9 9 8 8 8 8 8 9 10 11 11 12 11 10 9 9 6 2 6 5 5 3 2 4 7 10 15 15 10 13 16 15 15 16 18 17 13 14 14 13 17 14 10 13 16 16 10 6 5 4 4 3 4 6 5 6 4 1 5 7 6 8 7 8 15 13 12 14 16 20 20 18 18
14 14 14 14 14 14 12 10 9 10 10 10 10 9 9 10 10 9 9 9 9 9 8 9 10 11 12 11 11 8 5 4 3 3 6 5 3 2 3 6 11 16 13 9 13 15 15 16 17 17 16 13 13 13 13 19 16 10 13 16 19 15 8 6 3 3 4 7 8 8 6 4 5 7 6 6 4 5 7 12 12 12 16 16 19 20 18 18
13 13 14 14 14 14 13 12 10 10 10 10 10 10 10 10 10 10 10 10 9 9 9 9 10 11 12 12 11 6 10 10 1 5 7 5 3 3 4 6 11 16 13 12 14 14 15 17 18 17 14 11 13 14 14 18 18 13 12 13 17 17 12 10 6 4 6 9 9 7 6 5 10 7 6 7 1 7 7 9 9 11 16 15 16 18 16 18
12 12 13 13 13 13 14 13 12 11 11 11 11 10 10 10 11 11 10 10 10 10 10 10 10 11 12 12 10 9 13 9 5 7 7 6 4 4 5 7 10 14 13 13 14 13 15 17 18 16 12 11 13 13 14 16 17 15 14 13 13 12 13 14 12 10 10 10 9 9 9 9 12 7 5 8 5 7 7 9 10 9 12 13 14 15 15 17
12 12 12 12 13 13 13 13 13 12 12 12 12 11 11 10 11 11 11 11 11 11 10 10 11 11 12 11 10 11 7 5 8 12 8 6 6 5 5 7 9 13 13 13 13 12 14 15 16 16 13 12 13 14 15 15 12 13 17 18 13 10 12 13 14 14 12 11 10 11 11 13 13 6 7 12 7 7 8 9 10 10 10 11 13 14 15 17
12 12 12 12 12 13 13 13 13 13 12 12 12 12 11 11 11 11 11 11 11 12 11 11 11 12 11 10 11 9 2 3 5 10 10 8 7 6 7 9 10 13 13 12 13 13 13 12 13 15 13 12 13 12 15 14 10 9 14 20 18 13 12 12 15 15 13 13 13 12 11 15 14 6 9 14 10 8 9 9 9 11 11 11 13 14 15 16
12 12 12 12 12 12 13 13 13 13 13 13 12 12 12 11 11 11 11 11 11 12 12 11 12 12 10 9 13 9 1 1 1 5 11 9 9 9 10 11 11 13 13 11 12 12 13 12 10 11 9 10 12 11 14 15 13 11 10 14 19 16 14 14 14 14 13 12 13 13 12 16 14 9 14 14 13 11 10 10 11 11 12 13 14 14 15 17
12 12 12 12 12 12 12 13 13 13 14 13 13 12 12 12 11 11 11 11 12 11 12 12 12 12 10 11 17 13 5 4 4 5 8 10 10 10 11 11 11 12 11 11 12 11 13 12 10 12 7 6 10 9 11 16 17 16 11 10 14 15 15 16 15 14 14 10 13 14 12 15 13 12 18 12 12 12 12 12 12 11 12 13 14 14 15 17
12 12 12 12 12 12 12 13 13 13 13 13 13 13 12 12 11 11 10 11 11 11 12 12 12 11 9 12 15 10 6 5 7 7 9 11 11 11 11 10 10 11 10 11 10 10 13 10 11 16 10 7 10 3 3 12 15 14 12 10 10 12 14 17 18 17 16 12 14 14 9 13 14 16 21 15 13 12 13 14 13 12 12 13 14 14 15 16
13 13 13 13 13 13 12 12 13 13 13 13 13 13 12 11 10 10 10 11 10 10 11 10 12 9 8 14 13 10 11 7 9 11 10 11 12 12 11 10 11 11 10 10 9 8 12 11 11 15 12 12 10 1 2 10 11 11 12 10 9 9 10 16 19 17 16 13 14 13 7 10 13 20 25 20 18 15 14 16 14 12 13 14 14 14 15 14
13 13 13 13 13 13 13 12 13 13 13 13 13 13 12 12 11 11 11 12 11 11 11 10 11 7 9 17 13 12 13 10 13 14 13 13 13 12 11 11 11 10 10 9 8 8 10 11 12 12 11 14 11 4 7 9 8 10 10 9 10 9 10 14 19 18 16 13 16 14 7 9 14 20 28 24 20 19 17 16 15 13 13 15 15 14 14 14
14 14 13 13 13 13 13 13 12 13 13 13 13 13 13 13 12 13 14 13 12 12 9 7 7 7 10 10 7 10 11 10 14 15 15 14 13 11 10 11 11 10 10 9 8 9 11 11 14 13 11 12 10 7 8 7 8 9 9 9 10 11 12 11 15 17 16 13 16 15 9 9 11 9 20 22 19 20 18 16 15 14 13 14 15 15 14 15
14 14 14 14 13 14 14 13 13 13 12 13 13 13 14 14 14 14 14 15 14 11 6 4 3 8 11 6 6 11 10 9 11 15 17 14 12 9 9 12 12 11 11 9 9 11 12 12 12 10 10 8 8 9 8 8 8 7 9 10 10 13 13 10 12 15 17 15 15 16 13 12 5 6 13 15 16 17 18 16 15 14 14 15 15 15 15 15
14 14 14 14 14 14 14 14 13 13 12 13 13 13 14 15 15 16 16 15 12 7 6 7 6 7 9 10 9 6 7 8 9 15 16 14 12 9 10 12 11 12 12 11 12 14 14 13 11 7 7 8 8 9 9 9 9 9 10 9 10 12 11 12 11 12 17 17 14 14 14 15 10 9 12 13 14 15 17 16 16 15 14 15 16 16 15 15
15 15 15 14 14 14 14 14 13 13 12 12 13 13 14 15 15 16 12 9 6 5 6 7 12 7 5 7 10 4 5 7 10 14 15 14 12 10 12 12 12 15 14 11 12 15 12 10 10 8 8 9 10 11 11 10 10 9 11 10 10 10 9 13 9 10 13 14 13 14 13 15 16 12 12 13 14 14 16 16 15 15 15 16 16 16 16 15
16 15 15 15 15 14 14 14 13 13 12 12 12 12 11 12 10 6 5 10 15 15 15 11 15 15 11 7 9 8 8 8 11 14 15 15 12 13 14 13 13 15 13 9 10 14 12 8 9 8 9 11 11 15 12 7 9 8 8 9 12 10 8 13 9 10 9 9 12 15 13 14 15 14 12 14 13 13 15 16 16 16 16 16 16 17 16 14
16 16 16 16 15 15 15 14 13 12 12 11 10 8 9 10 8 5 3 12 19 21 22 19 16 18 16 10 7 8 9 11 14 14 15 15 14 14 14 14 13 11 12 12 10 10 10 8 9 11 12 10 10 14 10 5 7 8 8 6 9 9 8 13 10 10 8 7 8 12 15 14 12 14 12 13 12 12 15 15 16 17 16 16 16 17 16 13
16 16 16 16 16 15 15 15 14 12 11 11 10 9 10 10 8 8 10 14 20 21 21 21 20 19 17 14 10 9 11 13 15 15 16 17 17 14 14 15 12 10 12 13 9 8 8 8 11 12 9 5 3 6 6 6 8 9 8 7 7 8 8 10 8 7 7 6 8 11 13 12 13 14 10 11 11 12 16 17 17 18 17 17 17 16 16 14
16 16 17 16 16 16 16 15 14 13 12 11 12 11 10 9 8 9 11 13 18 21 19 19 21 20 17 16 14 13 14 14 14 17 19 19 19 16 13 13 12 11 12 12 9 7 7 9 14 12 6 4 5 5 6 7 8 9 9 8 8 8 10 8 7 8 9 7 9 11 9 10 11 10 8 11 12 12 15 18 18 19 17 16 16 16 16 16
16 16 17 17 16 16 16 16 15 13 11 10 11 11 11 11 9 10 11 13 15 17 16 14 15 17 16 15 14 17 17 15 13 17 21 20 19 16 12 12 13 11 11 13 12 10 8 6 10 10 7 7 10 8 9 8 8 10 11 10 9 10 11 6 4 8 9 8 10 9 7 9 9 9 9 10 12 12 14 17 17 17 16 14 15 16 17 17
17 16 16 17 16 16 16 15 10 8 8 9 9 9 9 9 7 8 10 11 11 10 11 10 10 12 12 11 13 18 18 16 16 16 21 22 19 14 11 12 11 10 12 14 12 12 10 4 6 6 6 9 11 9 11 10 8 10 12 14 14 11 11 6 5 7 6 8 11 10 9 7 9 12 12 10 10 12 13 15 15 16 16 15 15 16 16 16
18 17 17 17 16 16 14 9 3 5 9 9 7 5 4 5 7 8 6 7 6 5 8 9 9 8 11 13 14 17 14 15 18 16 20 22 20 14 10 10 9 10 11 12 9 8 7 6 7 8 8 11 12 10 12 11 9 8 10 16 17 13 10 8 8 9 7 5 8 12 10 6 8 12 13 12 12 13 13 13 13 14 15 15 15 15 15 15
19 18 18 18 17 16 13 8 7 10 10 5 2 2 3 5 7 5 4 6 6 5 7 8 6 6 10 13 18 16 8 11 18 17 18 20 20 16 11 9 9 9 7 7 7 7 7 6 6 9 10 11 10 9 11 13 11 8 6 14 16 13 9 9 9 9 7 4 4 10 11 7 5 9 13 15 14 15 14 11 12 14 13 13 14 15 15 13
19 19 19 18 17 17 15 14 12 11 9 4 3 5 5 6 6 3 5 6 2 4 5 6 5 6 7 11 21 16 3 10 17 16 19 19 18 16 11 10 10 8 8 7 6 6 9 11 8 9 10 8 9 11 11 14 12 6 4 10 13 14 12 10 11 9 6 5 5 9 11 8 4 7 12 15 15 16 14 11 11 11 11 13 14 14 13 12
18 19 19 18 17 17 16 15 13 10 9 7 8 9 7 7 5 4 6 5 2 3 4 6 6 8 10 11 20 19 7 9 12 15 22 19 18 16 10 10 10 10 11 10 9 4 6 11 12 11 11 8 11 11 10 14 12 3 5 10 10 11 12 9 10 8 6 7 8 9 11 8 5 7 9 10 12 13 11 9 9 9 11 14 15 13 11 11
18 19 19 19 16 14 14 14 13 10 9 10 11 9 7 6 5 6 7 4 3 4 5 6 7 10 13 12 15 17 13 9 8 15 21 19 19 17 10 7 9 10 10 11 14 6 1 5 8 10 12 7 5 4 4 11 12 3 4 9 8 8 8 7 8 7 5 7 9 10 11 10 6 7 8 9 10 9 8 7 7 10 12 11 11 10 10 11
17 19 20 20 16 11 11 10 7 5 6 11 10 8 7 6 6 8 7 2 5 5 8 7 8 10 14 13 11 14 14 10 9 14 15 14 16 15 10 7 7 8 7 8 12 9 5 6 6 10 14 7 2 4 6 10 11 6 6 9 8 7 7 7 7 7 6 7 9 10 11 10 7 4 6 9 9 7 7 10 11 12 13 13 12 9 9 10
17 19 19 19 16 12 10 7 6 5 6 7 7 8 8 7 7 8 6 3 3 5 7 8 9 10 13 13 11 14 14 10 12 14 12 11 11 11 10 8 7 7 7 7 9 9 9 9 9 12 14 9 7 7 8 9 10 8 8 9 8 6 6 7 7 7 7 6 6 8 10 9 5 3 2 5 10 7 4 7 12 14 15 15 12 10 11 12
17 18 18 17 15 12 10 10 12 12 8 6 7 9 8 7 8 9 9 7 2 3 3 6 8 9 12 12 10 14 14 10 13 14 13 13 11 11 13 13 11 9 7 7 9 8 7 9 13 13 11 11 12 8 7 8 9 10 9 9 8 6 6 7 7 7 8 6 5 6 6 7 5 6 6 6 6 6 7 9 10 11 11 12 13 16 16 14
17 17 16 15 11 8 8 8 10 10 9 8 7 9 10 9 9 9 10 12 6 2 3 5 8 9 10 10 8 11 12 10 14 14 13 14 10 10 12 14 15 12 7 7 7 8 9 8 12 13 9 12 14 12 7 6 9 11 10 9 7 5 6 7 6 5 5 5 7 7 5 6 4 4 7 7 5 6 9 12 13 14 14 15 16 20 18 16
17 15 13 11 7 6 6 5 6 6 9 11 8 8 10 9 8 9 10 11 10 7 6 6 8 10 10 9 8 12 13 10 13 14 12 13 11 10 10 12 15 13 8 7 6 7 10 8 10 16 12 12 15 14 11 8 8 9 9 9 8 7 6 4 2 0 2 3 5 7 4 2 3 4 6 6 4 5 8 10 12 13 14 14 15 17 19 18
14 12 10 5 3 4 4 5 5 4 9 12 9 9 10 8 8 9 7 8 11 10 10 9 9 10 9 8 10 14 15 11 13 13 11 12 13 12 12 11 13 14 10 7 5 5 9 6 9 16 14 11 14 14 13 11 6 5 8 10 7 6 6 5 3 3 1 5 4 4 5 4 6 7 7 7 4 5 7 8 8 8 9 12 14 17 19 19
10 7 6 2 3 4 6 7 6 5 10 12 10 9 9 9 11 12 8 6 8 10 10 9 8 9 9 8 9 11 13 11 12 11 9 12 12 12 14 12 13 15 13 9 5 4 6 5 6 13 14 13 12 11 12 12 9 5 6 8 5 4 5 5 4 3 5 8 5 5 7 7 6 6 10 13 11 9 9 8 8 7 8 11 13 16 17 17
8 6 5 4 6 8 10 10 7 8 11 11 10 10 10 10 14 15 11 6 7 9 11 9 6 8 10 9 8 10 11 9 9 9 9 9 5 6 11 12 13 16 15 12 7 3 5 6 6 10 13 13 11 9 10 11 12 10 5 4 6 5 5 5 5 4 6 7 6 7 8 7 6 5 10 14 11 11 10 8 8 8 10 11 13 15 16 17
7 7 6 5 8 11 11 10 9 11 11 9 9 9 10 12 15 16 12 8 8 9 10 10 9 8 8 9 9 8 10 10 8 7 8 8 5 3 5 6 10 14 15 14 9 5 5 6 5 8 10 10 9 9 9 8 11 12 8 6 7 6 5 5 4 5 7 6 6 7 8 5 2 1 7 9 10 11 9 8 8 9 11 12 13 14 15 17
7 7 3 1 8 11 7 9 11 11 10 9 10 9 10 13 15 16 13 9 9 9 8 10 11 8 6 10 11 6 7 9 6 4 6 5 5 5 3 5 5 9 8 9 8 6 6 5 5 6 8 8 7 8 11 10 10 10 9 8 8 6 4 4 4 6 7 6 5 7 6 2 5 5 3 9 12 10 9 10 9 10 13 14 14 15 14 14
9 7 2 3 6 7 1 8 9 9 8 8 10 11 11 11 12 14 14 11 11 10 10 10 9 8 8 9 9 7 7 7 5 4 5 3 1 3 3 3 3 6 5 7 8 6 5 6 6 6 7 8 8 9 13 13 9 8 9 10 10 8 6 6 7 7 6 6 5 6 3 3 5 6 2 9 10 9 11 11 10 12 15 15 15 15 13 14
9 4 4 5 5 2 2 6 7 9 8 8 10 12 10 8 8 11 12 13 13 11 10 9 8 8 8 7 7 7 7 7 7 8 5 3 6 4 4 4 5 6 5 7 6 0 1 4 7 8 8 7 5 5 6 8 8 9 8 8 9 9 8 7 7 6 6 6 6 7 3 3 2 5 4 6 7 10 13 12 11 13 15 15 15 14 14 14
7 3 4 5 5 3 6 6 6 7 8 10 13 13 10 7 8 11 12 11 11 10 10 9 7 9 9 8 8 7 6 7 9 6 6 6 3 4 4 6 6 6 5 5 4 3 0 4 7 8 7 7 5 4 5 6 8 10 8 7 8 9 9 8 7 5 6 7 7 7 5 3 2 2 2 5 8 11 13 13 12 13 14 14 14 13 13 13
7 4 2 4 6 4 6 5 5 5 6 10 11 10 10 10 10 11 12 11 10 9 9 9 8 10 10 8 7 8 6 6 7 7 6 9 5 5 7 5 5 6 4 2 3 2 3 4 6 7 6 7 9 8 7 7 8 8 9 9 11 12 11 8 6 5 6 7 7 6 3 3 3 1 3 7 9 10 11 12 12 12 14 14 12 12 12 12
8 3 2 4 6 4 4 5 5 5 5 8 8 8 10 11 9 9 9 9 8 7 6 8 8 8 8 8 8 9 8 5 5 6 4 6 8 9 10 8 6 5 5 7 8 5 3 1 3 6 5 5 6 4 4 5 7 8 9 9 9 12 13 9 6 6 7 8 9 7 2 6 5 5 6 8 9 10 10 11 11 11 13 14 13 13 14 14
7 4 4 5 5 5 5 5 6 5 5 5 6 6 8 8 7 8 8 6 5 6 6 6 7 6 8 10 9 9 10 8 6 5 6 4 6 6 6 7 6 6 10 11 10 6 2 2 2 2 2 2 4 7 11 10 7 10 12 10 8 10 11 9 8 8 5 6 8 5 7 12 9 9 9 8 8 9 9 10 11 12 14 15 15 15 15 15
5 4 6 5 4 5 6 7 7 5 4 4 4 3 5 7 5 6 8 5 4 6 7 6 6 7 8 9 9 9 10 10 8 7 8 5 3 6 4 6 8 11 11 9 9 6 4 4 3 2 1 2 5 7 12 14 10 7 6 7 7 8 8 7 7 6 4 4 4 2 11 13 11 11 11 8 7 7 8 11 13 14 14 15 15 15 14 15
4 4 6 4 3 5 6 7 9 6 4 4 2 2 4 6 5 2 5 5 4 5 5 5 7 8 8 8 8 8 9 9 9 7 6 5 2 5 6 7 9 9 9 7 7 5 4 5 5 3 3 1 3 3 7 11 9 4 2 1 0 2 5 5 2 2 3 2 3 8 13 11 9 10 10 8 8 8 9 11 13 13 14 14 15 15 14 14
4 4 5 4 3 5 6 8 10 5 5 6 2 2 2 2 4 2 2 3 2 2 3 4 5 7 8 8 8 6 5 6 6 3 3 4 5 4 4 6 8 8 8 6 5 3 2 3 6 5 5 3 2 4 5 7 8 5 3 3 4 5 5 6 6 6 6 8 10 13 15 13 9 9 8 7 8 10 11 13 13 13 13 14 15 15 14 14
6 4 3 3 6 8 8 9 8 4 6 8 4 4 5 4 5 5 4 3 2 4 5 1 2 3 2 3 2 2 4 5 2 2 4 4 3 4 3 3 5 7 8 6 5 4 3 3 5 5 5 6 4 2 4 6 8 8 7 7 5 5 8 9 8 8 8 10 12 14 15 12 9 9 9 8 8 10 11 13 13 12 12 13 14 15 15 14
7 5 5 4 5 8 10 9 7 5 6 7 6 6 6 6 5 6 8 9 7 6 6 5 3 3 5 7 8 8 7 7 6 3 3 4 2 1 2 2 3 6 8 6 4 3 3 3 5 5 6 5 7 7 3 2 6 9 10 9 7 5 7 8 7 8 7 6 9 11 10 8 8 10 11 10 11 13 14 13 12 11 10 12 14 14 14 14
6 4 5 4 4 7 7 7 6 5 5 6 7 7 8 8 8 5 5 8 11 11 10 9 6 2 6 9 10 9 7 6 5 3 3 3 2 1 0 1 3 4 4 6 5 5 4 4 5 6 6 4 6 9 7 4 1 5 7 5 3 4 4 5 6 9 10 6 3 6 7 9 11 11 11 11 11 13 14 13 11 11 10 10 13 14 15 14
Wind_Direction
2 355 348 339 333 325 319 311 299 299 305 306 303 308 318 330 340 343 349 354 359 2 359 358 346 330 320 313 307 302 297 288 285 272 270 269 247 248 243 235 222 207 197 180 175 186 191 198 203 200 206 209 216 226 216 212 222 224 227 237 238 237 238 246 235 211 252 94 94 83 153 254 270 160 217 214 216 198 171 160 108 99 98 112 124 138 148 152
8 3 355 347 340 331 325 317 305 296 295 300 299 302 307 316 331 334 342 351 357 3 0 4 358 349 338 323 317 308 296 292 287 273 268 256 240 241 230 226 210 197 189 178 183 192 191 196 199 196 205 211 210 218 215 206 217 225 225 234 235 241 242 254 288 331 298 0 60 94 169 242 302 179 185 212 205 177 175 165 125 113 114 128 134 139 148 153
11 8 2 356 347 339 331 323 315 302 292 291 294 299 301 305 317 324 332 342 355 2 360 4 3 359 351 339 326 308 305 303 291 277 259 227 216 217 216 210 195 192 184 182 192 195 196 199 197 198 207 216 210 210 212 200 208 224 229 236 232 242 253 271 309 304 324 340 325 91 202 228 259 203 175 193 194 182 177 157 142 138 130 140 142 145 152 154
8 8 6 2 354 345 336 329 321 313 301 292 290 293 296 298 304 312 319 330 344 353 359 1 1 2 358 352 334 318 324 307 278 234 191 184 176 190 210 193 185 180 169 183 202 199 204 205 199 203 212 221 213 209 212 202 203 218 225 241 239 239 261 264 231 248 259 295 284 316 272 233 202 193 214 198 180 189 169 154 168 149 145 158 149 150 153 155
2 4 4 4 0 352 341 333 326 320 312 301 293 289 291 292 294 300 306 316 327 340 352 352 357 359 357 358 339 331 330 307 153 139 167 169 149 150 184 182 178 167 160 191 210 204 211 211 204 207 218 228 217 211 216 212 209 222 228 238 250 257 280 271 221 222 238 245 253 248 248 260 228 215 233 219 187 197 166 159 166 146 158 170 155 152 154 159
356 358 358 0 0 356 348 337 330 325 321 312 301 293 286 285 289 291 295 304 313 325 339 343 350 351 353 355 339 337 300 284 97 171 198 160 151 117 136 168 171 165 170 209 207 204 213 212 208 208 219 231 226 218 217 216 210 227 236 232 248 259 266 262 223 178 230 240 234 233 256 298 267 235 226 247 204 163 156 150 148 148 169 171 154 152 154 164
351 352 351 353 355 356 353 343 334 327 324 318 310 300 286 279 283 285 288 294 301 311 324 332 339 341 346 347 338 312 259 267 265 209 200 177 180 118 122 155 166 168 183 211 201 203 209 208 211 211 218 227 232 225 219 222 215 225 243 233 238 243 240 246 246 225 228 238 237 245 271 252 245 244 198 229 163 134 160 154 155 156 162 163 152 151 154 167
347 347 346 347 347 349 351 348 342 331 326 321 316 308 295 284 279 281 284 287 292 300 310 320 328 332 336 343 332 280 252 244 220 222 210 201 195 143 137 150 164 173 191 209 203 204 207 210 213 213 221 226 234 230 221 227 221 223 243 246 240 235 235 241 245 243 234 235 236 239 253 239 234 253 227 219 169 146 171 160 167 164 155 156 154 152 155 167
342 342 341 341 341 342 344 347 345 337 330 323 321 316 307 296 285 282 280 283 287 291 301 309 315 321 325 334 316 279 248 192 230 241 228 211 199 170 150 155 167 180 200 210 207 210 211 214 214 217 231 235 239 234 224 228 222 220 235 245 246 234 235 238 238 238 236 232 232 232 236 235 230 247 258 230 181 145 175 166 166 173 166 156 155 156 156 165
339 338 337 336 336 336 336 339 342 341 335 327 323 320 314 306 298 289 282 282 283 286 293 297 305 312 320 325 298 276 152 126 250 240 224 213 198 175 160 175 181 193 209 211 212 216 218 222 218 225 243 252 252 239 227 227 225 229 237 242 242 239 234 233 235 232 232 229 226 232 231 231 222 212 239 221 178 158 181 173 174 181 171 160 158 159 161 166
337 335 333 333 332 331 332 332 334 337 336 331 324 320 317 312 306 298 289 283 280 283 287 290 300 303 312 308 276 269 68 118 233 217 216 204 190 180 173 188 194 203 214 214 217 222 226 231 231 231 237 249 249 240 235 228 231 248 255 249 241 240 238 235 237 229 230 228 220 230 237 233 213 203 236 214 171 181 189 178 185 185 168 162 162 160 164 166
334 333 330 329 328 327 327 326 327 329 333 333 326 321 317 313 309 304 298 290 285 282 282 288 293 297 312 291 261 258 283 257 211 192 201 191 187 185 184 198 204 209 220 221 222 227 229 232 235 232 228 250 240 234 238 225 232 247 250 258 244 236 238 233 232 227 227 223 214 221 233 233 211 210 233 206 167 190 193 191 191 183 169 162 164 163 165 166
332 331 328 326 324 324 323 322 322 322 325 329 328 322 316 314 311 306 303 297 292 285 283 286 287 295 300 276 260 249 254 245 219 200 187 189 191 194 200 209 212 216 228 230 231 228 225 227 230 232 239 256 238 223 251 219 226 245 239 247 247 235 233 225 223 223 223 220 212 211 221 229 213 216 225 197 176 200 196 199 199 185 172 163 166 163 161 169
331 329 327 325 322 320 318 318 317 318 319 322 325 322 316 312 308 307 305 301 297 290 286 283 286 294 271 265 267 254 250 243 223 210 193 193 193 200 208 211 215 220 228 233 242 227 216 220 226 237 245 248 251 246 223 222 218 235 235 233 241 243 232 213 210 213 216 211 201 205 229 234 216 211 213 194 179 196 203 202 202 193 178 166 166 164 165 175
331 329 326 324 321 318 315 314 313 314 314 315 318 319 314 307 303 303 301 300 296 290 289 288 289 280 262 269 260 247 257 245 224 213 199 195 195 204 207 207 211 213 219 222 232 220 206 210 216 234 234 229 256 259 216 224 213 224 232 227 224 234 247 216 197 201 210 196 188 207 234 238 244 221 198 186 182 193 206 205 201 199 185 170 166 169 172 181
330 329 327 324 321 317 314 312 310 309 310 311 311 313 311 304 299 297 299 298 292 289 288 297 303 269 270 283 236 233 257 237 219 207 197 196 200 208 200 199 203 202 210 212 215 208 199 207 213 234 240 215 230 241 221 219 211 214 221 232 223 215 242 224 179 187 206 198 190 207 233 233 257 232 172 172 187 197 208 207 200 200 188 175 173 172 173 183
329 328 327 324 321 317 314 311 308 307 306 306 306 308 308 305 300 296 294 289 287 291 278 265 290 258 257 264 234 235 229 208 200 190 191 196 202 207 188 190 198 196 201 201 201 196 194 208 214 233 251 225 214 225 229 220 211 213 213 230 234 218 230 218 171 179 204 212 202 199 227 240 217 127 152 174 191 201 213 210 201 201 189 181 182 176 174 183
328 327 325 324 321 318 314 311 309 306 304 304 305 306 305 304 297 288 284 284 287 290 271 244 229 253 246 228 236 229 187 182 182 183 187 192 200 204 190 192 192 188 192 192 194 195 192 203 214 219 227 220 216 217 223 224 213 211 211 220 236 225 221 223 195 177 198 209 209 199 212 237 223 163 168 188 195 203 216 213 202 199 189 187 189 180 176 183
327 326 325 323 320 318 314 312 310 306 305 301 302 307 305 301 290 279 273 265 243 236 268 212 195 252 304 222 230 222 167 171 173 182 185 187 195 197 192 193 188 187 192 186 187 197 193 199 217 220 215 210 215 220 223 240 243 229 220 213 229 227 210 231 216 158 190 201 206 216 210 223 233 211 176 181 198 207 215 214 202 195 189 192 192 183 181 183
327 326 325 323 321 318 313 311 310 307 306 301 307 311 301 297 287 265 218 222 232 249 274 248 216 253 283 246 232 207 180 181 186 190 187 185 188 189 190 190 188 192 199 189 181 196 200 208 218 218 225 213 211 227 235 281 306 292 253 218 223 233 204 221 212 145 185 213 203 219 227 220 226 230 199 179 195 210 217 213 198 193 190 194 197 188 184 184
325 325 325 324 322 319 315 311 308 307 304 297 303 296 287 305 314 328 307 257 254 255 261 260 246 252 259 256 240 199 194 201 202 197 186 183 187 188 186 187 191 195 205 200 177 188 208 222 223 218 230 225 209 226 241 297 298 277 271 246 223 237 217 205 189 141 173 222 216 214 230 228 219 234 214 175 190 209 216 212 197 197 194 195 199 188 181 180
323 323 323 324 323 322 317 311 307 305 299 291 290 273 274 308 318 317 314 290 279 267 255 253 250 249 252 250 233 216 221 209 199 197 184 182 193 192 180 186 200 194 199 204 179 183 215 230 231 221 222 234 214 231 249 260 255 249 255 258 233 229 225 198 157 137 174 203 231 223 225 229 224 230 201 168 197 210 213 214 203 202 198 194 195 185 177 178
322 320 321 321 322 323 320 315 308 300 295 285 279 262 265 301 309 306 303 286 285 279 259 244 241 240 239 235 218 208 221 214 199 191 181 183 198 200 187 189 206 201 195 206 198 195 212 220 226 219 184 190 224 232 244 242 238 242 242 244 241 220 220 208 166 190 200 199 242 239 226 230 226 218 185 180 206 210 213 216 205 200 200 195 191 182 179 182
321 319 319 319 320 322 322 319 308 300 299 283 274 260 263 285 295 309 302 278 279 277 259 239 233 236 230 222 206 200 211 218 210 189 179 190 201 203 205 200 208 212 199 203 210 226 236 206 205 205 163 191 224 219 224 236 225 228 236 240 242 224 222 226 177 196 199 203 240 253 243 226 205 202 200 195 203 205 206 210 201 195 197 194 187 184 182 186
319 318 319 318 319 321 324 326 320 316 310 286 285 279 270 276 282 306 304 278 270 253 232 215 215 226 214 196 192 198 208 217 221 197 179 194 202 198 211 210 214 220 202 200 211 236 242 146 146 205 188 202 223 216 213 226 229 222 225 238 252 247 228 207 164 192 210 209 212 222 242 224 187 202 207 188 193 199 197 202 199 192 193 188 185 187 185 191
316 315 315 316 317 319 325 332 330 317 302 278 276 271 253 272 288 297 289 274 269 206 176 182 195 194 187 187 184 192 207 211 217 202 178 195 206 202 212 205 212 229 212 201 211 240 232 153 164 218 215 212 220 222 213 212 235 236 206 219 245 262 246 214 193 204 227 233 191 200 235 233 185 200 198 184 193 196 194 199 196 194 195 189 186 186 189 199
313 310 309 310 313 316 317 304 287 292 290 277 249 250 263 281 290 294 265 266 260 188 153 162 178 168 181 191 179 187 214 191 197 198 182 194 204 207 227 205 198 231 231 214 213 225 223 196 190 205 211 216 217 225 213 202 228 249 190 198 224 243 242 229 229 226 232 258 192 201 232 243 198 195 186 181 193 198 192 192 197 197 193 190 191 185 189 201
309 305 305 305 307 311 307 298 295 282 273 294 287 267 282 280 276 264 251 269 241 165 152 147 144 154 175 181 182 196 225 156 179 188 181 193 198 198 226 225 209 216 215 227 217 187 207 219 205 197 210 215 217 224 207 202 226 245 202 200 213 226 226 224 234 237 234 244 230 214 224 234 217 193 180 177 195 200 183 180 196 192 183 191 197 186 185 199
308 305 304 302 303 308 303 297 295 272 259 281 270 255 264 267 260 243 246 263 220 177 158 142 149 176 182 178 191 205 198 166 183 174 172 191 200 200 225 234 228 217 201 221 233 181 184 214 206 198 210 215 221 222 194 198 218 227 219 217 213 223 225 225 233 235 230 237 244 225 212 219 209 173 171 183 206 201 171 171 186 172 179 200 201 186 181 196
308 308 305 302 306 310 304 300 297 277 249 254 254 242 246 248 235 233 228 238 247 191 144 151 166 177 180 178 195 208 208 202 185 162 170 185 196 209 233 237 241 233 201 213 237 246 97 206 208 205 217 228 225 210 182 210 216 194 229 223 211 220 223 228 236 235 229 233 243 229 211 224 216 164 177 204 208 188 158 165 176 165 176 206 213 190 181 194
310 309 304 302 304 298 291 294 300 291 249 247 244 219 223 231 228 236 219 244 279 193 160 182 177 164 179 188 191 199 207 200 166 165 176 181 189 204 222 222 234 236 209 208 230 239 223 208 209 217 231 256 281 196 206 230 228 216 230 221 206 210 212 218 222 224 230 233 237 222 208 223 226 181 193 187 158 148 164 174 177 169 172 201 222 208 193 193
310 307 302 300 298 286 274 249 227 253 252 236 221 206 217 220 220 235 222 236 267 183 181 198 185 174 188 199 192 188 202 191 170 182 186 181 189 196 208 212 199 206 214 207 211 217 218 210 200 210 223 234 243 216 192 214 227 220 225 224 215 208 209 220 216 214 227 233 238 221 205 214 211 127 135 129 118 128 146 154 167 168 170 188 204 210 212 196
311 306 302 298 295 287 273 245 237 249 243 215 214 215 223 225 220 225 225 229 193 122 190 205 197 199 194 201 197 187 200 192 173 188 192 190 198 194 206 216 201 207 224 208 203 203 207 209 203 207 206 207 230 234 182 189 210 214 219 222 218 206 211 228 221 216 225 214 209 214 208 217 197 125 113 96 106 138 112 109 143 158 168 187 191 198 203 180
313 308 305 299 296 286 272 263 257 251 226 211 223 219 220 230 228 219 224 235 231 171 220 218 208 213 205 213 210 191 205 198 179 192 194 193 204 198 204 214 208 214 229 218 215 205 206 208 200 206 196 185 214 241 236 202 198 211 226 230 229 219 217 236 239 234 241 214 189 192 210 228 217 140 124 117 127 147 125 126 145 157 177 190 184 183 176 155
317 314 313 306 298 284 271 281 285 252 208 206 220 219 218 224 225 226 228 238 243 217 209 221 225 226 217 214 215 206 215 205 184 196 200 195 206 203 199 209 210 214 219 215 220 217 223 218 193 204 206 188 203 230 247 240 209 204 222 230 227 227 227 236 249 304 324 279 204 187 212 215 147 130 117 110 126 143 130 132 137 144 159 157 145 150 147 144
324 322 320 309 277 281 277 288 297 248 201 206 219 220 221 222 221 232 232 234 249 241 219 215 222 232 227 211 212 207 209 212 197 197 204 204 206 204 202 204 204 211 222 219 211 216 230 232 185 193 205 207 208 215 225 237 236 199 217 232 228 233 251 247 210 147 176 263 238 193 218 181 149 161 142 130 160 160 132 114 103 102 113 113 111 122 130 137
325 309 301 235 213 267 272 276 286 235 207 215 227 225 226 230 228 240 252 249 261 260 242 231 218 225 231 221 217 201 199 212 206 200 205 204 204 204 206 203 195 206 224 231 232 229 237 252 185 181 199 211 216 232 233 233 244 226 215 234 234 230 261 267 247 191 199 235 233 204 217 204 187 181 159 165 178 157 126 106 99 96 95 97 97 105 117 128
322 280 253 220 247 278 277 271 256 213 211 220 231 234 237 237 231 238 251 259 266 259 246 245 226 216 226 227 220 206 206 214 205 209 213 200 203 216 212 206 192 199 212 215 220 220 233 255 213 191 207 204 200 237 246 231 240 252 261 253 239 234 232 230 241 237 222 233 232 212 214 225 230 190 167 175 162 128 118 112 109 103 98 97 95 96 104 113
314 264 235 229 279 294 279 255 221 207 216 223 227 230 238 245 243 241 241 240 253 254 246 247 238 224 228 235 231 208 206 215 206 218 225 204 199 247 256 236 194 193 205 211 216 204 212 252 230 206 219 205 186 213 232 220 221 239 264 255 235 245 247 231 229 236 233 229 230 222 212 223 302 77 167 163 128 120 129 121 110 99 96 98 98 98 102 110
295 265 219 210 312 317 275 214 201 210 219 224 231 229 229 240 246 245 241 241 253 254 250 251 243 235 236 242 240 218 208 220 208 238 265 230 187 187 246 281 210 185 195 219 232 214 197 223 233 226 232 219 202 210 220 224 214 212 228 235 230 230 228 237 242 240 245 239 228 231 211 149 26 5 175 145 128 138 139 120 112 103 98 96 95 99 103 110
284 270 61 40 327 347 149 190 201 221 225 223 234 239 238 240 242 241 236 235 247 255 262 270 261 249 247 244 237 223 226 228 196 215 260 274 246 190 188 264 220 177 184 219 230 226 204 216 228 233 232 224 227 225 220 229 239 224 215 221 230 231 222 233 238 229 240 253 246 244 212 107 25 349 82 122 127 139 133 123 116 106 102 99 98 101 105 107
280 281 36 9 326 341 242 229 226 229 232 231 232 232 236 244 248 249 242 232 235 242 249 258 261 255 256 260 256 240 238 238 215 209 207 235 290 281 186 195 195 186 212 212 197 25 311 240 238 232 231 234 248 263 242 241 260 259 242 228 226 230 230 236 244 238 239 251 256 255 235 122 13 346 55 118 139 136 132 128 117 108 106 107 108 108 111 114
304 347 32 6 343 291 258 258 243 232 241 249 246 240 237 238 238 246 250 238 229 230 231 233 245 249 247 254 266 260 248 250 245 226 172 170 268 294 181 177 175 182 221 211 148 65 11 238 250 244 244 247 234 242 258 248 250 253 249 242 235 233 232 233 240 250 250 248 246 249 238 149 117 2 75 134 137 126 127 129 123 117 114 116 119 118 117 120
324 343 359 9 3 297 265 278 274 260 259 254 253 256 254 249 240 241 245 237 224 227 230 228 237 244 243 246 261 264 257 253 256 245 184 155 171 232 208 189 195 195 200 169 113 128 212 228 247 244 246 243 221 210 218 220 230 241 237 241 246 242 242 249 244 235 247 250 242 246 236 124 117 139 135 140 137 124 120 124 124 120 119 124 130 128 125 126
313 314 316 3 7 322 294 316 306 298 294 268 257 256 250 247 248 249 255 254 246 247 240 234 243 248 247 247 249 254 260 263 258 258 239 160 162 190 192 193 221 203 140 119 123 152 201 204 263 255 253 252 238 238 262 239 223 228 231 240 253 244 243 254 248 233 243 246 246 250 179 114 120 143 133 131 137 129 118 120 120 119 124 131 134 131 126 125
322 349 345 349 0 342 337 346 325 306 308 290 267 254 241 239 247 244 244 249 251 255 255 253 260 257 250 251 248 246 247 241 234 245 258 221 160 150 173 193 190 129 116 128 138 153 178 101 51 301 266 296 314 325 325 311 257 227 222 224 239 243 244 252 249 245 249 247 255 249 145 135 139 142 136 132 134 128 124 124 124 127 127 126 128 129 125 124
335 3 354 346 357 353 350 356 351 333 314 297 280 279 244 225 227 228 228 226 226 247 254 253 254 249 246 250 248 248 247 237 232 239 252 249 125 110 150 162 131 115 121 140 151 165 195 159 113 85 147 262 296 320 335 325 290 250 226 219 226 226 225 235 246 261 279 269 277 90 119 131 137 135 130 127 124 123 130 129 126 127 126 124 128 129 126 124
356 37 26 3 343 355 352 348 348 340 321 304 275 305 272 222 196 194 234 228 208 236 254 251 257 253 246 247 244 241 245 243 237 238 250 252 155 132 152 140 131 145 161 161 157 179 218 179 151 142 145 219 300 333 350 335 320 327 51 77 255 190 192 196 205 301 301 248 133 110 110 115 124 123 112 100 91 95 111 119 119 122 124 128 129 124 123 123
28 59 55 50 36 21 9 352 348 347 349 347 350 13 343 191 143 102 285 242 188 288 289 244 252 260 245 245 246 233 242 254 238 232 312 278 222 186 171 149 148 175 192 175 151 175 228 161 153 177 191 199 311 8 16 339 329 343 20 34 45 74 97 98 82 71 86 101 106 112 112 109 107 103 101 99 94 96 104 110 116 121 127 130 128 123 122 122
19 15 27 60 60 40 27 13 8 33 19 357 15 60 40 55 93 82 43 38 67 7 347 296 260 310 272 240 238 108 53 21 25 81 5 318 230 201 215 181 159 186 196 176 144 164 209 165 147 175 214 214 227 330 3 346 335 334 335 344 2 48 65 62 52 58 90 111 114 110 107 106 102 100 110 121 117 113 110 108 113 121 129 130 125 123 124 120
21 25 11 0 43 45 36 26 24 49 34 9 19 41 38 48 64 74 63 52 49 35 13 356 337 11 59 61 54 55 44 26 28 41 9 341 322 259 261 226 194 195 183 160 148 172 192 178 163 190 234 227 201 207 222 0 345 318 303 308 328 16 50 56 47 38 49 103 133 123 109 113 119 116 121 123 116 111 103 101 111 117 124 131 129 125 125 123
10 20 353 339 38 59 54 38 32 49 44 25 20 17 22 36 36 42 62 45 34 34 27 7 341 358 72 55 36 23 10 2 8 358 329 331 337 15 344 239 239 238 198 172 184 186 171 177 187 200 232 240 196 192 184 154 232 285 278 285 353 35 53 63 59 43 30 29 122 123 109 120 127 124 121 111 95 82 67 60 72 82 81 94 113 122 119 112
Height
1507 1506 1505 1504 1503 1503 1503 1502 1502 1502 1501 1501 1500 1500 1499 1498 1497 1497 1496 1495 1494 1493 1492 1491 1490 1490 1489 1488 1487 1486 1486 1485 1484 1483 1482 1480 1480 1480 1480 1480 1480 1481 1482 1484 1486 1488 1489 1490 1490 1491 1492 1491 1490 1488 1486 1486 1485 1484 1483 1483 1478 1471 1465 1456 1453 1455 1454 1454 1458 1460 1462 1461 1459 1460 1462 1464 1464 1463 1466 1469 1471 1474 1476 1477 1479 1479 1481 1483
1507 1506 1505 1504 1503 1502 1502 1501 1501 1501 1500 1500 1499 1499 1498 1498 1497 1496 1495 1494 1494 1493 1492 1491 1490 1489 1488 1487 1486 1486 1484 1483 1482 1481 1479 1478 1479 1479 1479 1479 1480 1480 1481 1483 1485 1487 1487 1488 1489 1490 1490 1488 1487 1485 1483 1483 1483 1481 1479 1479 1474 1465 1457 1451 1451 1452 1455 1458 1460 1461 1462 1462 1461 1460 1462 1464 1463 1463 1467 1470 1472 1475 1478 1480 1481 1481 1482 1483
1507 1506 1505 1504 1503 1502 1501 1501 1500 1500 1499 1499 1498 1498 1498 1497 1497 1496 1495 1494 1493 1493 1492 1491 1490 1489 1488 1486 1485 1485 1483 1482 1481 1478 1477 1477 1478 1478 1478 1478 1479 1480 1480 1482 1485 1486 1486 1487 1488 1488 1488 1485 1482 1482 1480 1480 1481 1478 1477 1475 1469 1460 1453 1452 1456 1458 1460 1463 1461 1462 1463 1463 1463 1462 1463 1464 1463 1464 1466 1470 1474 1475 1478 1481 1481 1481 1482 1484
1507 1506 1505 1504 1503 1502 1501 1500 1499 1499 1498 1498 1497 1497 1497 1496 1496 1495 1495 1494 1493 1492 1491 1490 1489 1488 1487 1486 1485 1484 1483 1481 1478 1476 1476 1477 1477 1477 1477 1477 1478 1479 1480 1483 1485 1486 1486 1486 1487 1487 1486 1482 1479 1479 1478 1478 1478 1475 1474 1471 1462 1456 1456 1456 1460 1463 1464 1466 1464 1464 1464 1463 1462 1464 1462 1460 1465 1467 1465 1470 1474 1475 1479 1481 1482 1481 1483 1484
1508 1506 1505 1504 1503 1501 1500 1500 1499 1498 1497 1497 1496 1496 1496 1495 1495 1495 1494 1493 1493 1492 1491 1490 1489 1488 1487 1486 1485 1483 1483 1480 1475 1475 1476 1477 1477 1477 1477 1477 1478 1479 1480 1483 1485 1485 1485 1485 1485 1485 1484 1479 1476 1476 1475 1474 1475 1473 1469 1466 1460 1456 1459 1459 1461 1464 1466 1468 1467 1466 1465 1463 1462 1464 1462 1459 1464 1466 1464 1468 1473 1475 1479 1481 1481 1481 1483 1485
1507 1506 1505 1504 1503 1501 1500 1499 1498 1498 1497 1496 1495 1495 1495 1494 1494 1494 1493 1493 1492 1491 1491 1490 1489 1488 1487 1486 1484 1483 1483 1478 1474 1476 1476 1476 1477 1477 1477 1477 1477 1478 1480 1483 1484 1484 1484 1483 1483 1482 1481 1477 1473 1472 1472 1472 1473 1473 1466 1463 1463 1460 1462 1462 1463 1467 1469 1468 1467 1465 1464 1465 1465 1463 1462 1461 1461 1464 1465 1468 1472 1476 1480 1481 1480 1481 1483 1485
1507 1506 1505 1504 1503 1501 1500 1499 1498 1497 1496 1495 1494 1494 1493 1493 1493 1492 1492 1492 1491 1491 1490 1489 1488 1488 1486 1486 1484 1483 1482 1477 1474 1476 1475 1476 1477 1477 1477 1477 1477 1478 1480 1483 1482 1482 1482 1482 1480 1479 1478 1475 1472 1469 1470 1470 1469 1471 1466 1462 1462 1462 1463 1464 1465 1467 1469 1468 1467 1467 1466 1467 1467 1463 1463 1463 1463 1467 1469 1469 1472 1475 1478 1480 1480 1481 1483 1485
1507 1506 1505 1504 1502 1501 1500 1498 1497 1496 1495 1494 1493 1493 1492 1492 1491 1491 1491 1491 1490 1490 1490 1489 1488 1487 1486 1485 1484 1482 1479 1476 1474 1475 1476 1476 1476 1477 1477 1477 1477 1478 1480 1482 1481 1481 1481 1480 1478 1477 1475 1473 1471 1467 1468 1469 1466 1467 1466 1462 1460 1461 1464 1465 1466 1467 1467 1468 1468 1468 1468 1467 1466 1464 1463 1463 1465 1468 1470 1470 1472 1474 1476 1478 1480 1481 1483 1485
1506 1505 1504 1503 1502 1501 1500 1498 1497 1496 1494 1493 1493 1492 1491 1491 1490 1490 1490 1489 1489 1489 1489 1488 1487 1487 1486 1484 1485 1481 1475 1474 1473 1474 1476 1476 1476 1476 1476 1477 1477 1478 1480 1481 1480 1480 1479 1478 1477 1476 1473 1470 1469 1466 1467 1468 1464 1464 1465 1463 1460 1461 1463 1465 1465 1465 1466 1466 1467 1467 1467 1466 1464 1466 1466 1463 1464 1468 1470 1470 1472 1474 1476 1478 1480 1482 1483 1485
1505 1504 1503 1502 1501 1500 1499 1498 1496 1495 1494 1493 1492 1491 1490 1489 1489 1489 1488 1488 1488 1488 1488 1488 1486 1486 1485 1485 1484 1478 1472 1474 1474 1473 1474 1475 1476 1475 1476 1478 1478 1479 1480 1480 1480 1479 1478 1477 1476 1475 1473 1470 1468 1465 1465 1465 1463 1461 1463 1462 1460 1460 1462 1464 1463 1463 1464 1464 1465 1466 1466 1464 1463 1467 1467 1462 1463 1468 1470 1470 1472 1474 1476 1478 1480 1482 1483 1485
1505 1503 1502 1501 1500 1499 1498 1497 1496 1495 1493 1492 1491 1490 1489 1488 1488 1487 1487 1487 1487 1487 1487 1486 1486 1485 1485 1485 1483 1476 1472 1474 1474 1473 1474 1474 1475 1475 1477 1478 1478 1479 1479 1479 1479 1479 1478 1477 1476 1476 1474 1471 1468 1466 1464 1463 1463 1462 1463 1462 1459 1459 1460 1461 1461 1461 1462 1462 1463 1465 1464 1462 1460 1465 1464 1458 1463 1468 1469 1470 1473 1474 1476 1478 1480 1482 1483 1484
1504 1503 1501 1500 1499 1498 1497 1496 1495 1494 1492 1491 1490 1489 1488 1487 1487 1486 1486 1486 1485 1485 1485 1485 1485 1484 1484 1484 1480 1474 1473 1474 1474 1474 1473 1473 1475 1475 1477 1478 1478 1479 1478 1478 1478 1478 1478 1477 1477 1475 1472 1471 1468 1466 1465 1464 1465 1463 1463 1464 1461 1459 1459 1459 1459 1460 1460 1460 1462 1464 1466 1463 1459 1462 1460 1457 1463 1466 1468 1470 1472 1474 1476 1478 1480 1482 1483 1484
1503 1502 1500 1499 1498 1497 1496 1495 1494 1493 1492 1491 1489 1488 1488 1486 1486 1485 1485 1484 1484 1484 1484 1484 1484 1483 1484 1481 1474 1472 1473 1473 1473 1473 1473 1473 1475 1475 1476 1477 1477 1478 1478 1477 1477 1477 1478 1477 1477 1474 1472 1471 1466 1465 1464 1463 1465 1464 1463 1464 1462 1460 1457 1454 1455 1457 1458 1458 1458 1462 1469 1464 1456 1457 1457 1458 1464 1466 1467 1469 1470 1473 1475 1477 1480 1481 1483 1484
1502 1501 1499 1498 1497 1496 1495 1494 1493 1492 1491 1490 1489 1488 1487 1486 1485 1484 1484 1483 1483 1483 1482 1483 1482 1482 1482 1477 1471 1471 1471 1472 1472 1471 1473 1473 1474 1475 1475 1476 1477 1477 1477 1477 1476 1477 1477 1477 1477 1474 1473 1471 1465 1464 1465 1464 1465 1464 1463 1462 1461 1460 1453 1446 1449 1453 1455 1456 1455 1461 1467 1460 1450 1450 1452 1455 1462 1465 1466 1467 1468 1471 1474 1477 1479 1481 1483 1484
1501 1500 1498 1497 1496 1495 1494 1493 1492 1491 1490 1489 1488 1487 1486 1485 1484 1483 1483 1482 1482 1481 1481 1482 1481 1481 1480 1473 1469 1469 1468 1469 1470 1470 1472 1472 1473 1474 1474 1475 1476 1476 1477 1477 1477 1476 1476 1477 1477 1474 1471 1470 1467 1466 1465 1463 1462 1461 1464 1463 1458 1457 1450 1439 1440 1447 1451 1453 1454 1460 1465 1457 1445 1439 1443 1451 1458 1462 1464 1464 1467 1469 1472 1475 1478 1480 1482 1483
1500 1499 1497 1496 1495 1494 1493 1492 1491 1490 1489 1488 1487 1486 1485 1484 1483 1482 1481 1480 1481 1480 1480 1481 1480 1481 1478 1470 1467 1467 1467 1467 1467 1469 1470 1471 1472 1472 1473 1474 1475 1475 1476 1476 1476 1476 1476 1476 1474 1472 1468 1467 1468 1466 1463 1462 1460 1457 1461 1460 1452 1453 1450 1438 1436 1442 1446 1450 1452 1457 1460 1455 1444 1434 1437 1449 1455 1459 1460 1461 1465 1468 1470 1473 1476 1479 1480 1482
1499 1498 1496 1495 1494 1493 1492 1491 1490 1489 1488 1487 1486 1485 1484 1483 1482 1481 1480 1479 1479 1478 1479 1479 1480 1481 1475 1467 1466 1465 1464 1465 1465 1467 1468 1470 1471 1471 1472 1473 1474 1475 1475 1475 1476 1475 1475 1474 1473 1471 1466 1464 1463 1463 1464 1465 1461 1455 1454 1454 1448 1445 1446 1440 1437 1441 1443 1446 1449 1453 1456 1451 1444 1440 1444 1451 1454 1457 1458 1459 1463 1467 1469 1472 1475 1477 1478 1481
1498 1497 1495 1494 1493 1492 1490 1489 1488 1488 1487 1486 1485 1484 1483 1481 1480 1479 1478 1477 1477 1478 1479 1478 1481 1479 1468 1464 1464 1462 1462 1464 1464 1466 1467 1469 1470 1470 1471 1472 1472 1473 1474 1474 1474 1473 1473 1471 1469 1467 1465 1463 1460 1460 1464 1461 1453 1451 1451 1452 1448 1441 1441 1439 1435 1438 1441 1444 1447 1451 1454 1451 1444 1443 1448 1452 1454 1456 1456 1457 1462 1465 1469 1471 1473 1475 1477 1479
1497 1495 1494 1493 1492 1490 1489 1488 1487 1486 1486 1485 1484 1483 1481 1480 1478 1476 1476 1477 1477 1476 1473 1472 1474 1470 1462 1462 1462 1461 1462 1463 1464 1465 1466 1467 1469 1470 1470 1471 1471 1472 1471 1470 1470 1469 1469 1468 1467 1465 1462 1460 1458 1454 1455 1449 1441 1441 1442 1445 1446 1440 1440 1437 1430 1433 1438 1444 1448 1448 1450 1450 1445 1442 1445 1451 1454 1455 1456 1456 1460 1464 1467 1470 1471 1473 1475 1477
1496 1494 1493 1492 1490 1489 1488 1487 1486 1485 1485 1484 1483 1482 1481 1478 1474 1472 1474 1475 1473 1470 1466 1466 1466 1463 1460 1461 1460 1461 1462 1463 1464 1464 1465 1466 1468 1468 1468 1469 1469 1469 1467 1464 1466 1466 1466 1466 1464 1461 1457 1453 1454 1451 1449 1447 1443 1442 1439 1440 1441 1438 1438 1435 1431 1434 1439 1444 1447 1446 1446 1445 1444 1442 1441 1448 1453 1454 1455 1455 1458 1462 1465 1468 1469 1471 1473 1475
1494 1493 1492 1490 1489 1488 1487 1486 1485 1484 1484 1483 1482 1482 1481 1478 1474 1473 1474 1471 1467 1465 1464 1462 1462 1460 1458 1459 1458 1459 1460 1461 1462 1462 1463 1465 1466 1466 1465 1466 1466 1466 1463 1459 1462 1463 1464 1465 1459 1455 1452 1448 1450 1450 1449 1452 1452 1450 1446 1441 1440 1438 1435 1431 1432 1437 1441 1446 1446 1443 1445 1443 1442 1441 1438 1444 1452 1453 1453 1454 1457 1461 1463 1467 1468 1469 1472 1474
1493 1492 1490 1490 1488 1487 1486 1484 1483 1483 1482 1482 1481 1481 1480 1480 1478 1477 1475 1469 1462 1461 1460 1459 1459 1458 1457 1458 1458 1459 1459 1457 1458 1460 1461 1463 1464 1462 1461 1462 1462 1460 1458 1457 1459 1463 1465 1462 1454 1449 1448 1449 1451 1452 1453 1456 1456 1454 1450 1446 1443 1439 1434 1430 1433 1439 1443 1448 1448 1442 1444 1443 1440 1439 1438 1444 1450 1451 1452 1452 1455 1459 1461 1464 1467 1468 1471 1472
1492 1490 1490 1488 1487 1486 1484 1483 1482 1481 1481 1480 1480 1480 1480 1480 1479 1478 1477 1470 1460 1456 1455 1454 1454 1454 1454 1455 1456 1458 1457 1453 1454 1456 1458 1461 1460 1459 1458 1458 1458 1455 1455 1455 1455 1461 1463 1456 1449 1446 1448 1453 1456 1456 1458 1459 1458 1455 1452 1450 1445 1437 1435 1437 1439 1442 1442 1446 1446 1441 1442 1443 1440 1439 1440 1445 1448 1449 1452 1452 1453 1458 1460 1462 1465 1467 1469 1470
1491 1489 1488 1487 1486 1485 1483 1482 1481 1479 1479 1479 1478 1478 1479 1479 1478 1478 1476 1469 1458 1451 1449 1448 1449 1450 1450 1451 1453 1455 1455 1453 1451 1452 1456 1458 1457 1457 1456 1454 1454 1453 1451 1452 1453 1455 1451 1444 1442 1445 1449 1455 1458 1458 1459 1460 1458 1454 1451 1448 1442 1435 1434 1436 1440 1442 1442 1445 1445 1443 1447 1444 1440 1443 1444 1444 1446 1448 1450 1451 1453 1456 1460 1463 1464 1466 1468 1469
1489 1488 1487 1485 1485 1483 1482 1481 1479 1479 1479 1477 1477 1477 1478 1478 1477 1477 1475 1468 1455 1445 1444 1446 1446 1447 1447 1449 1451 1451 1452 1452 1449 1449 1452 1455 1455 1454 1453 1452 1452 1450 1448 1450 1453 1452 1445 1441 1444 1448 1451 1455 1457 1457 1457 1458 1456 1452 1449 1446 1440 1435 1434 1435 1441 1445 1449 1451 1444 1445 1456 1450 1439 1443 1445 1443 1447 1449 1449 1451 1453 1456 1459 1462 1464 1466 1467 1469
1488 1487 1485 1484 1483 1482 1482 1480 1479 1480 1478 1477 1478 1477 1478 1478 1477 1477 1475 1467 1453 1440 1440 1444 1443 1443 1445 1447 1448 1451 1452 1449 1447 1448 1450 1453 1453 1452 1451 1450 1449 1447 1445 1446 1450 1449 1443 1442 1446 1450 1452 1453 1455 1454 1452 1454 1455 1450 1443 1442 1441 1438 1436 1436 1440 1445 1450 1449 1439 1439 1454 1452 1441 1441 1441 1443 1447 1448 1450 1451 1452 1457 1460 1461 1464 1466 1467 1468
1486 1485 1483 1483 1481 1481 1481 1479 1479 1479 1477 1478 1477 1477 1478 1476 1476 1476 1474 1470 1454 1437 1436 1440 1440 1441 1442 1444 1446 1449 1448 1443 1444 1446 1447 1451 1452 1451 1450 1447 1447 1447 1442 1445 1451 1447 1442 1445 1448 1449 1452 1452 1453 1452 1447 1449 1454 1447 1435 1437 1441 1440 1440 1440 1440 1442 1442 1442 1439 1437 1442 1447 1447 1441 1436 1440 1447 1447 1449 1452 1453 1456 1460 1462 1464 1466 1468 1470
1484 1483 1481 1481 1480 1479 1479 1478 1478 1477 1478 1477 1475 1477 1477 1475 1477 1475 1475 1476 1453 1430 1432 1437 1438 1441 1441 1443 1444 1442 1439 1436 1440 1443 1446 1450 1449 1450 1450 1445 1444 1445 1443 1447 1452 1445 1441 1445 1448 1449 1452 1451 1448 1445 1442 1445 1448 1442 1434 1436 1438 1438 1439 1440 1440 1440 1438 1444 1449 1440 1435 1448 1453 1442 1434 1439 1444 1446 1448 1451 1453 1455 1460 1465 1465 1466 1468 1471
1482 1480 1479 1478 1478 1478 1476 1476 1475 1475 1476 1475 1474 1476 1474 1475 1477 1471 1476 1476 1445 1425 1432 1435 1438 1441 1439 1441 1441 1438 1436 1435 1437 1438 1443 1448 1447 1448 1448 1444 1443 1443 1443 1447 1446 1440 1439 1442 1443 1446 1449 1445 1441 1437 1436 1442 1443 1438 1436 1436 1435 1436 1436 1437 1439 1438 1441 1453 1454 1441 1435 1448 1453 1442 1438 1443 1444 1443 1447 1451 1453 1456 1464 1467 1465 1466 1467 1470
1480 1478 1477 1476 1476 1476 1475 1474 1473 1473 1473 1473 1473 1474 1474 1476 1474 1473 1479 1467 1436 1425 1431 1433 1435 1436 1436 1439 1439 1437 1436 1435 1435 1437 1441 1445 1446 1447 1445 1444 1443 1441 1441 1444 1442 1438 1438 1440 1441 1442 1442 1437 1435 1434 1435 1439 1438 1437 1439 1437 1437 1437 1435 1438 1437 1437 1452 1460 1450 1437 1432 1440 1449 1444 1441 1444 1442 1441 1446 1452 1454 1457 1465 1469 1467 1467 1468 1469
1478 1477 1475 1474 1474 1474 1474 1473 1472 1471 1472 1472 1472 1473 1475 1473 1469 1473 1471 1451 1431 1428 1429 1430 1431 1430 1433 1435 1435 1436 1434 1432 1435 1438 1440 1442 1444 1446 1445 1446 1445 1443 1443 1444 1442 1439 1439 1443 1443 1440 1438 1436 1437 1438 1439 1438 1436 1438 1440 1437 1441 1443 1439 1443 1440 1442 1462 1464 1444 1432 1430 1438 1450 1448 1439 1436 1437 1441 1446 1450 1454 1458 1462 1468 1469 1469 1468 1471
1476 1474 1472 1471 1471 1472 1472 1472 1471 1471 1471 1471 1472 1473 1473 1471 1469 1467 1456 1440 1434 1429 1423 1426 1427 1426 1430 1430 1429 1432 1431 1430 1433 1435 1437 1438 1440 1442 1443 1443 1443 1448 1450 1446 1443 1442 1441 1440 1439 1439 1438 1438 1441 1440 1439 1440 1438 1440 1440 1438 1447 1454 1454 1457 1454 1452 1460 1456 1438 1429 1432 1441 1446 1443 1440 1437 1439 1445 1446 1446 1451 1455 1458 1463 1467 1469 1471 1474
1474 1472 1470 1469 1469 1469 1469 1469 1469 1470 1470 1470 1472 1470 1469 1470 1467 1457 1445 1438 1433 1425 1422 1425 1424 1423 1426 1426 1426 1427 1427 1428 1430 1433 1434 1435 1437 1439 1439 1437 1436 1443 1446 1442 1442 1444 1444 1440 1436 1438 1437 1437 1440 1438 1438 1441 1439 1439 1438 1438 1448 1459 1470 1472 1461 1455 1455 1448 1436 1429 1435 1445 1443 1442 1444 1443 1445 1449 1448 1449 1452 1455 1459 1462 1465 1469 1475 1476
1471 1470 1468 1467 1466 1467 1467 1467 1467 1468 1469 1471 1471 1468 1468 1470 1460 1446 1442 1435 1425 1422 1425 1425 1424 1424 1424 1424 1423 1423 1426 1427 1426 1429 1431 1432 1436 1437 1436 1435 1433 1435 1438 1439 1439 1440 1446 1445 1436 1434 1435 1435 1437 1434 1431 1433 1434 1436 1432 1432 1440 1448 1461 1467 1458 1455 1455 1446 1437 1437 1444 1447 1446 1446 1444 1444 1448 1449 1449 1453 1457 1460 1463 1464 1465 1469 1473 1474
1469 1467 1466 1465 1465 1465 1465 1466 1466 1467 1469 1470 1468 1465 1466 1464 1453 1442 1438 1430 1421 1422 1425 1424 1425 1427 1425 1423 1422 1421 1423 1424 1423 1425 1426 1428 1432 1433 1432 1432 1431 1430 1434 1441 1439 1433 1439 1439 1428 1427 1429 1429 1434 1432 1427 1429 1432 1432 1427 1430 1437 1436 1439 1450 1453 1452 1455 1452 1444 1442 1445 1442 1444 1447 1443 1445 1449 1448 1450 1453 1455 1459 1460 1460 1464 1467 1470 1472
1467 1466 1465 1464 1465 1465 1465 1465 1465 1466 1468 1467 1465 1461 1457 1451 1444 1437 1430 1425 1422 1420 1421 1424 1426 1427 1427 1425 1422 1419 1418 1419 1420 1422 1423 1423 1425 1426 1427 1427 1427 1428 1429 1435 1437 1434 1439 1434 1421 1423 1427 1425 1429 1429 1426 1430 1432 1432 1432 1432 1429 1425 1427 1441 1450 1448 1455 1464 1452 1442 1445 1441 1444 1449 1445 1450 1455 1450 1451 1453 1453 1457 1457 1457 1461 1464 1468 1471
1467 1466 1465 1465 1466 1465 1464 1465 1465 1466 1467 1464 1461 1456 1448 1441 1437 1431 1424 1423 1424 1421 1421 1425 1424 1425 1429 1426 1420 1417 1419 1420 1420 1420 1422 1422 1420 1420 1421 1422 1424 1427 1427 1430 1433 1433 1438 1435 1422 1422 1429 1427 1426 1427 1425 1424 1427 1433 1438 1431 1422 1425 1429 1437 1449 1452 1457 1466 1452 1441 1447 1444 1444 1450 1448 1451 1457 1453 1452 1455 1456 1458 1458 1459 1460 1463 1468 1470
1465 1465 1465 1465 1464 1463 1463 1464 1464 1465 1465 1462 1458 1453 1445 1438 1433 1429 1425 1425 1428 1426 1424 1425 1421 1420 1424 1425 1420 1417 1420 1423 1422 1423 1423 1422 1423 1420 1419 1420 1421 1423 1425 1429 1434 1433 1436 1442 1432 1423 1427 1426 1424 1431 1431 1425 1424 1428 1429 1426 1426 1437 1440 1440 1451 1458 1460 1464 1455 1445 1445 1441 1439 1444 1444 1446 1451 1452 1455 1458 1458 1458 1458 1460 1461 1463 1468 1470
1464 1464 1464 1463 1462 1461 1461 1461 1463 1463 1462 1458 1454 1450 1444 1437 1431 1428 1427 1428 1430 1429 1426 1424 1420 1417 1419 1422 1419 1417 1423 1425 1423 1426 1425 1423 1429 1427 1421 1420 1420 1421 1423 1426 1432 1432 1435 1447 1443 1427 1422 1424 1426 1433 1436 1432 1427 1427 1428 1427 1426 1433 1438 1439 1443 1448 1451 1458 1459 1451 1447 1447 1444 1439 1440 1447 1452 1454 1458 1460 1459 1459 1460 1461 1462 1465 1468 1471
1463 1461 1461 1461 1461 1459 1458 1459 1461 1460 1457 1453 1448 1444 1440 1436 1432 1429 1429 1431 1431 1429 1427 1423 1419 1419 1421 1421 1416 1417 1424 1424 1422 1429 1428 1424 1428 1430 1426 1423 1421 1422 1425 1426 1429 1430 1433 1445 1449 1437 1426 1427 1430 1430 1431 1430 1426 1429 1434 1434 1431 1429 1432 1438 1441 1439 1439 1448 1454 1452 1453 1457 1453 1444 1441 1448 1455 1457 1458 1460 1461 1461 1462 1464 1466 1468 1470 1472
1462 1460 1460 1461 1460 1458 1458 1459 1458 1455 1450 1447 1444 1440 1436 1433 1431 1429 1431 1433 1433 1430 1428 1425 1422 1422 1423 1421 1417 1416 1420 1422 1426 1434 1434 1431 1434 1432 1427 1427 1426 1426 1430 1432 1431 1431 1434 1440 1447 1447 1438 1433 1430 1423 1421 1423 1421 1423 1428 1430 1432 1430 1431 1444 1450 1439 1433 1440 1444 1447 1458 1466 1459 1448 1445 1446 1452 1457 1458 1460 1462 1462 1465 1467 1470 1472 1473 1475
1460 1458 1459 1461 1459 1458 1459 1457 1453 1450 1446 1442 1439 1437 1435 1433 1432 1432 1432 1434 1433 1431 1429 1428 1427 1427 1425 1423 1420 1417 1417 1421 1425 1428 1431 1435 1440 1437 1431 1429 1429 1429 1431 1432 1432 1433 1436 1437 1442 1446 1438 1430 1427 1422 1420 1421 1421 1421 1422 1422 1425 1427 1430 1443 1452 1443 1436 1438 1437 1438 1454 1468 1461 1452 1451 1450 1450 1454 1458 1462 1462 1464 1468 1471 1473 1476 1477 1478
1458 1457 1459 1460 1459 1459 1459 1454 1449 1447 1445 1440 1436 1434 1433 1434 1435 1436 1435 1433 1433 1432 1430 1429 1430 1430 1428 1426 1423 1421 1421 1423 1420 1422 1429 1436 1439 1438 1434 1432 1431 1431 1430 1431 1434 1438 1439 1441 1444 1443 1436 1428 1426 1424 1423 1423 1424 1425 1424 1421 1423 1424 1426 1432 1438 1441 1442 1441 1440 1441 1453 1466 1463 1456 1454 1453 1452 1454 1459 1464 1465 1467 1471 1474 1476 1478 1480 1481
1458 1458 1460 1459 1459 1458 1457 1453 1450 1449 1446 1442 1439 1437 1436 1436 1435 1436 1435 1432 1431 1430 1429 1429 1430 1430 1427 1425 1426 1424 1424 1427 1423 1421 1427 1435 1439 1439 1436 1434 1432 1431 1432 1434 1438 1442 1444 1446 1446 1448 1451 1448 1437 1431 1430 1428 1428 1429 1426 1424 1424 1422 1424 1428 1430 1438 1445 1442 1439 1446 1459 1465 1463 1458 1456 1455 1456 1458 1461 1465 1467 1469 1473 1476 1478 1480 1481 1483
1458 1458 1458 1459 1459 1458 1456 1453 1452 1451 1449 1445 1442 1442 1441 1439 1436 1437 1436 1434 1432 1431 1431 1430 1429 1429 1427 1426 1429 1426 1424 1428 1428 1423 1423 1429 1436 1437 1435 1435 1433 1431 1434 1437 1437 1441 1446 1449 1449 1454 1463 1466 1457 1449 1444 1435 1430 1429 1427 1427 1428 1425 1427 1433 1435 1441 1450 1445 1437 1444 1460 1467 1462 1459 1459 1458 1459 1463 1465 1468 1470 1472 1475 1478 1480 1482 1483 1484
1459 1458 1458 1458 1459 1458 1456 1455 1453 1451 1449 1448 1446 1443 1442 1442 1440 1439 1438 1438 1437 1436 1435 1434 1431 1432 1432 1429 1430 1429 1425 1425 1427 1426 1424 1424 1428 1432 1432 1433 1433 1434 1437 1438 1437 1440 1445 1451 1455 1457 1462 1466 1466 1460 1449 1437 1433 1431 1428 1429 1432 1431 1431 1435 1438 1443 1446 1444 1442 1443 1453 1463 1465 1463 1463 1462 1463 1468 1470 1471 1474 1475 1477 1480 1482 1484 1485 1486
1461 1461 1462 1461 1460 1460 1459 1457 1455 1453 1451 1450 1449 1445 1443 1443 1442 1441 1441 1440 1440 1439 1437 1436 1434 1434 1435 1432 1432 1432 1427 1424 1425 1427 1426 1424 1426 1431 1433 1432 1434 1438 1439 1439 1439 1440 1446 1454 1458 1458 1459 1460 1460 1458 1452 1443 1436 1431 1429 1432 1434 1434 1436 1440 1445 1445 1442 1447 1456 1454 1452 1461 1465 1463 1465 1466 1468 1472 1474 1474 1476 1478 1479 1481 1484 1486 1487 1488
1462 1464 1465 1465 1464 1464 1463 1461 1458 1456 1453 1450 1449 1447 1444 1442 1442 1445 1444 1440 1440 1440 1439 1438 1437 1434 1433 1432 1433 1433 1431 1429 1429 1428 1428 1427 1428 1431 1432 1432 1436 1440 1439 1438 1440 1440 1444 1454 1458 1458 1459 1459 1457 1458 1458 1452 1442 1435 1436 1440 1439 1438 1440 1445 1447 1444 1442 1449 1460 1461 1461 1465 1467 1465 1469 1472 1474 1477 1478 1477 1479 1481 1482 1483 1485 1486 1488 1489
1463 1465 1466 1466 1466 1467 1467 1464 1461 1458 1455 1452 1450 1448 1446 1443 1444 1446 1445 1442 1442 1441 1440 1442 1440 1434 1431 1431 1431 1434 1437 1436 1435 1434 1435 1434 1432 1432 1434 1435 1437 1440 1438 1438 1442 1443 1446 1453 1457 1457 1460 1463 1462 1460 1459 1458 1453 1447 1445 1446 1445 1444 1444 1446 1447 1445 1447 1455 1459 1461 1465 1469 1471 1473 1477 1479 1481 1482 1481 1481 1482 1483 1485 1485 1486 1488 1490 1492
1467 1467 1467 1465 1466 1467 1468 1467 1464 1462 1460 1457 1453 1451 1449 1447 1447 1447 1446 1446 1449 1447 1443 1443 1440 1435 1433 1432 1433 1438 1442 1442 1440 1440 1441 1440 1436 1434 1436 1436 1437 1440 1439 1439 1442 1445 1449 1454 1455 1456 1461 1464 1465 1465 1464 1465 1464 1460 1457 1454 1451 1451 1451 1452 1454 1453 1455 1462 1464 1465 1470 1475 1478 1480 1482 1484 1484 1484 1484 1484 1485 1487 1488 1488 1489 1491 1493 1495
1470 1470 1469 1466 1466 1468 1470 1470 1468 1467 1467 1465 1460 1455 1453 1452 1450 1450 1450 1450 1452 1451 1448 1446 1443 1439 1438 1439 1441 1445 1447 1445 1444 1444 1444 1442 1439 1437 1437 1435 1435 1437 1438 1440 1445 1445 1448 1454 1455 1457 1462 1462 1462 1467 1469 1470 1472 1472 1469 1465 1462 1461 1460 1461 1462 1462 1463 1466 1466 1467 1473 1478 1481 1483 1485 1485 1486 1486 1487 1488 1489 1491 1491 1491 1492 1494 1496 1498
1472 1472 1470 1467 1466 1469 1471 1473 1472 1471 1473 1473 1468 1462 1459 1456 1454 1453 1455 1456 1454 1453 1452 1449 1445 1443 1444 1448 1449 1450 1450 1449 1448 1448 1446 1444 1441 1439 1439 1437 1436 1436 1436 1440 1447 1445 1446 1454 1456 1457 1462 1461 1458 1462 1467 1473 1481 1480 1474 1470 1469 1469 1468 1465 1464 1467 1468 1467 1466 1467 1471 1476 1480 1484 1486 1488 1489 1491 1493 1494 1494 1494 1495 1495 1496 1497 1499 1502